Probability
0 0 0 0 0 0 0 0 0 0 0 0 0 0 0 0 0 0 0 0 0 0 3 3 3 3 0 0 0 0 0 0 0 0 0 0 0 0 0 0 0 0 0 0
0 0 0 0 0 0 0 0 0 0 0 0 0 0 0 0 0 0 0 0 0 0 0 0 3 3 3 0 0 0 0 0 0 0 0 0 0 0 0 0 0 0 0 0
0 0 0 0 0 0 0 0 0 0 0 0 0 0 0 0 0 0 0 0 0 0 0 0 0 3 3 0 0 0 0 0 0 0 0 0 0 0 0 0 0 0 0 0
0 0 0 0 0 0 0 0 0 0 0 0 0 0 0 0 0 0 0 0 0 0 0 0 0 3 0 0 0 0 0 0 0 0 0 0 0 0 0 0 0 0 0 0
0 0 0 0 0 0 0 0 0 0 0 0 0 0 0 0 0 0 0 0 0 0 0 0 0 3 0 0 0 0 0 0 0 0 0 0 0 0 0 0 0 0 0 0
0 0 0 0 0 0 0 0 0 0 0 0 0 0 0 0 0 0 0 0 0 0 0 0 0 3 0 0 0 0 0 0 0 0 0 0 0 0 0 0 0 0 0 0
0 0 0 0 0 0 0 0 0 0 0 0 0 0 0 0 0 0 0 0 0 0 0 0 0 3 0 0 0 0 0 0 0 0 0 0 0 0 0 0 0 0 0 0
0 0 0 0 0 0 0 0 0 0 0 0 0 0 0 0 0 0 0 0 0 0 0 0 0 3 0 0 0 0 0 0 0 0 0 0 0 0 0 0 0 0 0 0
0 0 0 0 0 0 0 0 0 0 0 0 0 0 0 0 0 0 0 0 0 0 0 0 0 0 0 0 0 0 0 0 0 0 0 0 0 0 0 0 0 0 0 0
0 0 0 0 0 0 0 0 0 0 0 0 0 0 0 0 0 0 0 0 0 0 0 0 0 0 0 0 0 0 0 0 0 0 0 0 0 0 0 0 0 0 0 0
0 0 0 0 0 0 0 0 0 0 0 0 0 0 0 0 0 0 0 0 0 0 0 0 0 0 0 0 0 0 0 0 0 0 0 0 0 0 0 0 0 0 0 0
0 0 0 0 0 0 0 0 0 0 0 0 0 0 0 0 0 0 0 0 0 0 0 0 0 0 0 0 0 0 0 0 0 0 0 0 0 0 0 0 0 0 0 0
0 0 0 0 0 0 0 0 0 0 0 0 0 0 0 0 0 0 0 0 0 0 0 0 0 0 0 0 0 0 0 0 0 0 0 0 0 0 0 0 0 0 0 0
0 0 0 0 0 0 0 0 0 0 0 0 0 0 0 0 0 0 0 0 0 0 0 0 0 0 0 0 0 0 0 0 0 0 0 0 0 0 0 0 0 0 0 0
0 0 0 0 0 0 0 0 0 0 0 0 0 0 0 0 0 0 0 0 0 0 0 0 0 0 0 0 0 0 0 0 0 0 0 0 0 0 0 0 0 0 0 0
0 0 0 0 0 0 0 0 0 0 0 0 0 0 0 0 0 0 0 0 0 0 0 0 0 0 0 0 0 0 0 0 0 0 0 0 0 0 0 0 0 0 0 0
0 0 0 0 0 0 0 0 0 0 0 0 0 0 0 0 0 0 0 0 0 0 0 0 0 0 0 0 0 0 0 0 0 0 0 0 0 0 0 0 0 0 0 0
0 0 0 0 0 0 0 0 0 0 0 0 0 0 0 0 0 0 0 0 0 0 0 0 0 0 0 0 0 0 0 0 0 0 0 0 0 0 0 0 0 0 0 0
0 0 0 0 0 0 0 0 0 0 0 0 0 0 0 0 0 0 0 0 0 0 0 0 0 0 0 0 0 0 0 0 0 0 0 0 0 0 0 0 0 0 0 0
0 0 0 0 0 0 0 0 0 0 0 0 0 0 0 0 0 0 0 0 0 0 0 0 0 0 0 0 0 0 0 0 0 0 0 0 0 0 0 0 0 0 0 0
0 0 0 0 0 0 0 0 0 0 0 0 0 0 0 0 0 0 0 0 0 0 0 0 0 0 0 0 0 0 0 0 0 0 0 0 0 0 0 0 0 0 0 0
0 0 0 0 0 0 0 0 0 0 0 0 0 0 0 0 0 0 0 0 0 0 0 0 0 0 0 0 0 3 0 0 0 0 0 0 0 0 0 0 0 0 0 0
0 0 0 0 0 0 0 0 0 0 0 0 0 0 0 0 0 0 0 0 0 0 0 0 0 0 0 0 0 0 0 0 0 0 0 0 0 0 0 0 0 0 0 0
0 0 0 0 0 0 0 0 0 0 0 0 0 0 0 0 0 0 0 0 0 0 0 0 0 0 0 0 0 0 0 0 0 0 0 0 0 0 0 0 0 0 0 0
0 0 0 0 0 0 0 0 0 0 0 0 0 0 0 0 0 0 0 0 0 0 0 0 0 0 0 0 0 0 0 0 0 0 0 0 0 0 0 0 0 0 0 0
0 0 0 0 0 0 0 0 0 0 0 0 0 0 0 0 0 0 0 0 0 0 0 0 0 0 0 0 0 0 0 0 0 0 0 0 0 0 0 0 0 0 0 0
Height
5851 5853 5854 5855 5855 5856 5856 5857 5857 5858 5857 5857 5857 5857 5857 5857 5856 5856 5855 5855 5854 5853 5852 5852 5851 5850 5850 5849 5848 5848 5847 5847 5846 5847 5846 5846 5846 5846 5846 5846 5846 5846 5847 5847
5848 5849 5851 5851 5851 5852 5853 5854 5855 5855 5854 5854 5855 5855 5854 5854 5854 5853 5853 5852 5851 5851 5850 5849 5849 5848 5847 5847 5846 5845 5845 5845 5844 5844 5845 5845 5844 5845 5845 5845 5845 5845 5846 5847
5844 5847 5847 5847 5848 5849 5850 5851 5852 5852 5852 5851 5852 5853 5852 5851 5851 5851 5850 5849 5849 5848 5847 5847 5846 5845 5845 5844 5844 5843 5843 5843 5842 5842 5842 5843 5843 5843 5844 5844 5844 5845 5845 5846
5839 5842 5843 5844 5844 5846 5847 5848 5848 5848 5848 5849 5850 5850 5850 5848 5848 5848 5847 5847 5846 5845 5845 5844 5843 5842 5842 5842 5841 5841 5840 5840 5840 5840 5841 5841 5842 5842 5843 5843 5843 5844 5845 5845
5835 5838 5839 5840 5842 5843 5844 5844 5844 5845 5845 5846 5846 5846 5848 5846 5846 5845 5845 5844 5843 5843 5842 5841 5840 5839 5839 5838 5838 5838 5838 5838 5838 5838 5839 5839 5840 5841 5841 5842 5843 5843 5844 5845
5831 5833 5834 5836 5838 5839 5839 5840 5841 5841 5841 5843 5844 5843 5845 5843 5843 5842 5842 5841 5841 5840 5839 5838 5837 5837 5836 5835 5835 5835 5835 5835 5836 5836 5837 5838 5838 5839 5840 5841 5842 5843 5843 5844
5826 5828 5830 5831 5833 5834 5835 5837 5837 5837 5837 5839 5840 5840 5842 5841 5840 5839 5839 5838 5838 5837 5836 5835 5834 5834 5833 5832 5832 5832 5833 5833 5833 5834 5835 5836 5837 5838 5839 5840 5841 5842 5843 5844
5821 5823 5825 5827 5828 5830 5831 5832 5834 5834 5834 5835 5836 5837 5839 5838 5837 5836 5836 5835 5835 5834 5833 5832 5831 5831 5830 5829 5829 5830 5830 5830 5831 5832 5833 5834 5835 5837 5838 5838 5840 5841 5842 5843
5815 5818 5821 5822 5824 5826 5826 5827 5829 5830 5830 5831 5832 5834 5835 5834 5834 5833 5833 5832 5831 5831 5830 5829 5828 5827 5827 5826 5826 5827 5827 5828 5829 5830 5831 5833 5834 5835 5836 5837 5838 5840 5841 5842
5809 5813 5815 5817 5819 5820 5822 5824 5824 5825 5825 5826 5828 5830 5831 5831 5830 5830 5829 5829 5828 5827 5826 5826 5825 5824 5824 5824 5824 5824 5825 5826 5827 5828 5830 5831 5832 5833 5835 5836 5837 5838 5840 5841
5803 5806 5810 5812 5813 5815 5817 5818 5819 5820 5821 5822 5824 5828 5828 5827 5827 5827 5826 5825 5825 5824 5823 5823 5822 5822 5821 5821 5822 5823 5823 5824 5825 5826 5828 5829 5830 5832 5833 5834 5835 5837 5838 5840
5796 5799 5802 5806 5809 5810 5812 5813 5815 5816 5817 5818 5820 5825 5823 5823 5823 5823 5822 5822 5821 5821 5820 5820 5819 5819 5819 5819 5820 5820 5821 5822 5823 5824 5825 5827 5828 5830 5831 5832 5834 5835 5837 5838
5790 5793 5796 5799 5803 5805 5806 5808 5810 5811 5813 5813 5815 5820 5819 5819 5819 5819 5819 5818 5818 5817 5817 5817 5817 5816 5817 5817 5818 5818 5819 5820 5821 5822 5823 5824 5826 5827 5829 5830 5832 5833 5835 5836
5783 5785 5789 5792 5796 5798 5800 5802 5804 5805 5807 5809 5811 5813 5815 5815 5815 5815 5815 5814 5814 5814 5814 5814 5814 5814 5814 5815 5815 5816 5817 5818 5819 5820 5821 5822 5823 5825 5826 5828 5829 5831 5833 5834
5775 5778 5782 5785 5788 5791 5794 5796 5798 5800 5802 5804 5806 5807 5810 5810 5810 5811 5811 5810 5810 5811 5811 5811 5811 5811 5811 5812 5813 5813 5814 5815 5816 5817 5818 5820 5821 5823 5824 5825 5827 5829 5830 5832
5768 5771 5775 5778 5781 5783 5786 5790 5792 5794 5796 5798 5800 5803 5804 5805 5806 5806 5806 5807 5807 5807 5807 5808 5808 5808 5809 5809 5810 5811 5812 5813 5814 5815 5816 5817 5819 5820 5822 5823 5825 5826 5828 5830
5761 5765 5767 5770 5773 5775 5778 5783 5786 5788 5791 5793 5794 5798 5799 5800 5801 5802 5802 5802 5803 5803 5804 5804 5805 5805 5806 5807 5807 5808 5809 5810 5811 5813 5814 5815 5817 5818 5819 5821 5822 5824 5825 5827
5754 5757 5760 5763 5766 5767 5775 5777 5780 5782 5784 5787 5789 5791 5793 5795 5796 5797 5798 5798 5799 5800 5800 5801 5802 5802 5803 5804 5805 5805 5806 5807 5809 5810 5812 5813 5814 5816 5817 5818 5820 5821 5823 5824
5747 5750 5752 5755 5757 5761 5767 5770 5772 5774 5778 5781 5783 5785 5787 5789 5791 5792 5793 5793 5795 5796 5797 5798 5799 5799 5800 5801 5801 5803 5804 5805 5806 5808 5809 5811 5812 5813 5814 5816 5817 5818 5820 5821
5739 5742 5745 5747 5749 5753 5761 5763 5765 5768 5771 5775 5776 5779 5781 5783 5786 5788 5788 5789 5790 5792 5793 5794 5795 5796 5797 5798 5799 5800 5801 5802 5803 5805 5806 5807 5809 5810 5812 5813 5814 5816 5817 5818
5732 5734 5737 5740 5742 5746 5753 5755 5757 5761 5766 5769 5770 5773 5775 5777 5780 5782 5783 5784 5786 5787 5789 5790 5791 5792 5793 5794 5795 5796 5797 5799 5800 5802 5803 5804 5805 5807 5808 5810 5811 5812 5813 5814
5724 5727 5730 5732 5735 5742 5746 5748 5750 5754 5758 5761 5763 5766 5768 5771 5773 5775 5777 5779 5781 5783 5784 5786 5787 5788 5790 5791 5792 5793 5794 5795 5797 5798 5800 5801 5802 5803 5805 5806 5807 5809 5810 5811
5716 5720 5722 5726 5731 5735 5737 5740 5743 5747 5750 5753 5756 5759 5761 5764 5767 5769 5771 5773 5775 5777 5779 5781 5782 5784 5785 5787 5788 5789 5791 5792 5793 5795 5796 5797 5798 5799 5801 5802 5804 5805 5806 5807
5709 5712 5714 5718 5723 5726 5729 5732 5735 5739 5742 5745 5748 5751 5754 5757 5760 5763 5765 5767 5770 5772 5774 5776 5777 5779 5781 5782 5784 5785 5787 5788 5790 5791 5792 5793 5795 5796 5797 5798 5800 5801 5802 5803
5701 5703 5705 5709 5714 5718 5721 5724 5727 5730 5734 5737 5740 5744 5747 5750 5753 5756 5759 5761 5764 5766 5768 5770 5772 5774 5776 5777 5779 5781 5782 5784 5786 5787 5788 5789 5790 5791 5793 5794 5795 5796 5797 5798
5692 5695 5698 5702 5706 5709 5713 5716 5719 5723 5726 5730 5733 5736 5739 5743 5746 5749 5752 5755 5757 5760 5762 5764 5766 5769 5770 5772 5774 5776 5777 5779 5781 5782 5783 5785 5786 5787 5788 5789 5791 5791 5793 5794
Wind_Speed
16 16 15 15 15 14 13 12 12 12 13 13 12 13 13 13 13 13 12 12 12 12 12 11 11 11 10 9 9 9 9 9 7 7 6 6 6 5 5 5 5 4 4 4
18 17 15 15 16 15 13 13 12 12 13 13 13 13 13 12 13 12 12 11 12 12 12 11 11 11 10 9 9 9 8 9 8 7 7 6 6 6 5 5 5 4 4 4
19 17 16 17 17 16 14 14 13 13 13 14 13 12 13 12 12 12 11 11 11 12 12 11 11 11 11 10 9 9 9 8 8 7 7 7 6 6 5 5 5 5 5 5
19 18 18 18 17 16 15 14 14 14 14 13 14 12 12 13 12 11 12 11 11 11 12 12 12 12 12 11 11 10 10 9 8 7 7 7 7 6 6 5 5 5 5 5
19 18 18 18 17 16 15 15 16 16 15 14 13 13 11 12 12 11 12 12 12 12 12 12 12 12 12 12 11 11 10 10 9 8 8 7 6 6 5 5 5 4 4 4
20 19 19 18 17 17 17 17 17 17 17 15 13 13 10 11 11 12 12 12 12 12 12 12 12 11 11 11 11 11 10 10 10 10 9 8 8 7 6 6 6 6 5 4
21 20 20 19 19 19 19 18 18 17 17 15 14 14 11 11 11 12 12 12 12 12 12 11 11 11 11 11 11 10 10 9 10 10 9 8 8 8 8 7 7 7 6 6
22 21 20 20 20 20 19 19 18 18 17 16 15 14 12 11 12 13 12 12 13 12 12 11 12 11 11 11 10 10 9 8 9 10 10 8 8 8 8 8 7 7 7 7
23 22 21 21 20 20 20 20 19 19 18 17 16 14 12 12 13 13 13 13 12 12 12 12 12 11 10 10 10 9 9 9 9 9 9 9 9 9 8 8 8 8 8 7
24 23 22 22 21 21 20 20 20 20 19 18 17 14 12 12 13 13 13 13 13 12 12 11 11 10 9 9 9 9 9 9 9 9 9 10 10 9 9 9 9 8 8 7
25 25 23 23 22 21 21 21 20 20 20 18 17 14 13 13 13 13 13 13 13 12 11 11 10 10 9 8 8 8 9 8 9 10 10 10 10 10 10 10 10 10 9 8
26 26 25 24 23 22 22 21 20 20 19 19 18 16 14 13 14 13 13 13 12 12 11 10 10 10 9 8 7 8 8 9 9 10 11 11 11 11 11 11 11 11 10 10
26 27 26 25 24 23 23 22 21 21 21 20 19 17 15 15 14 14 14 13 12 12 11 10 10 9 9 8 8 8 8 9 9 10 11 11 12 12 12 12 12 11 11 11
27 27 27 26 25 23 23 23 23 23 23 21 19 17 16 15 15 15 15 14 13 12 11 10 10 10 9 9 9 9 9 10 10 10 11 11 12 12 12 12 12 12 12 12
27 27 26 26 26 25 24 24 24 24 23 21 19 18 16 16 16 16 15 14 13 12 11 11 10 10 10 10 9 10 10 10 10 10 11 11 12 12 12 12 12 12 12 12
29 28 27 26 26 27 26 25 25 24 23 22 21 18 17 17 16 16 15 14 13 13 12 12 11 10 10 10 10 10 10 10 10 9 10 11 11 12 11 12 12 12 13 12
31 30 29 28 27 28 29 26 25 24 24 23 21 19 18 17 16 15 15 14 14 13 13 12 12 11 11 10 11 11 11 11 10 10 11 11 11 11 11 11 12 12 13 13
32 31 30 30 29 30 28 26 26 26 24 23 22 21 19 17 16 16 15 15 14 14 13 12 11 11 11 11 11 11 11 11 11 12 12 12 12 11 11 12 13 13 13 13
31 31 30 30 31 30 28 27 27 27 25 24 23 22 21 19 18 16 16 15 15 14 14 12 11 11 11 11 11 11 11 12 12 12 13 13 13 12 12 12 13 13 13 13
29 31 31 30 30 29 26 26 27 27 26 24 24 23 22 20 19 17 17 17 16 15 14 13 13 12 12 12 11 11 12 12 12 13 14 14 14 14 13 12 13 14 14 14
29 31 31 31 30 28 26 26 27 27 25 24 23 23 22 21 19 19 19 18 18 17 16 15 14 14 13 13 13 12 12 12 13 14 14 14 14 14 14 14 14 14 15 14
30 31 31 31 30 27 26 27 28 26 25 25 24 23 23 21 20 20 20 20 19 18 18 17 16 15 15 14 14 13 13 13 13 14 14 15 15 15 14 14 14 15 16 15
31 31 32 33 30 27 27 28 28 27 26 25 25 24 24 23 22 22 21 21 21 20 20 19 18 16 16 16 15 14 14 14 13 13 14 14 15 15 15 15 15 15 15 16
30 32 32 31 30 30 29 28 28 29 28 27 26 26 25 24 23 24 23 22 21 21 21 20 19 18 17 17 17 16 16 16 15 14 14 14 15 15 16 16 16 15 15 16
31 32 33 32 30 30 29 30 29 29 29 28 27 27 26 26 25 25 24 22 22 21 21 21 20 19 18 18 18 18 17 17 16 16 16 16 16 16 16 16 16 16 17 17
30 31 31 32 32 32 29 29 30 29 28 27 27 27 26 26 25 25 25 24 22 22 22 21 21 20 20 19 19 19 18 17 17 17 16 16 17 17 16 16 17 16 17 17
Wind_Direction
259 260 262 264 264 263 265 267 269 271 276 281 283 283 284 285 285 285 287 288 291 290 291 289 287 285 281 281 283 284 277 271 270 269 271 276 282 274 265 262 255 242 231 235
256 257 259 259 261 260 262 265 266 268 275 279 282 283 285 284 283 282 283 286 288 289 292 291 286 281 278 279 281 281 282 272 267 265 261 266 269 261 255 252 240 228 222 223
255 256 255 257 257 258 261 262 264 267 270 275 279 279 283 283 281 282 280 281 285 287 289 289 285 280 277 278 278 277 277 275 268 261 254 254 257 248 246 243 231 224 220 221
252 252 252 254 253 257 259 262 263 267 269 272 277 276 279 282 281 280 279 280 283 284 286 286 286 281 279 277 274 273 271 269 262 254 252 248 247 244 241 234 223 221 220 216
251 252 252 253 254 256 257 260 263 267 269 270 275 277 277 279 281 280 280 280 284 285 286 287 287 283 279 276 273 269 267 262 258 253 246 241 239 235 230 226 216 214 215 217
249 249 251 250 250 252 255 259 262 265 267 268 274 276 275 279 280 280 283 282 286 289 288 286 285 284 279 273 270 266 264 260 253 249 242 237 230 226 225 223 219 217 218 216
247 247 249 249 248 250 253 256 260 262 265 269 270 271 273 278 279 282 287 289 288 290 288 285 283 284 280 274 267 264 262 256 248 241 235 230 224 220 222 223 220 219 219 220
248 247 247 248 250 252 253 256 259 263 266 268 267 270 271 273 277 281 285 290 291 289 285 283 284 284 279 273 266 262 259 252 244 240 233 224 220 221 224 223 219 217 219 221
246 246 247 249 250 252 252 253 257 262 265 267 267 268 265 270 275 280 284 287 289 287 284 283 283 283 276 270 264 257 251 244 236 232 227 223 223 226 226 223 220 217 219 221
246 246 244 247 248 250 252 253 255 259 263 265 265 266 268 272 274 277 280 285 286 285 283 282 283 281 273 266 258 249 243 236 227 223 224 226 227 229 228 222 222 220 219 219
244 245 244 244 244 247 250 251 253 256 260 263 265 266 269 273 275 277 281 284 284 282 281 282 280 278 270 261 253 247 240 233 226 224 227 229 231 229 226 225 224 224 221 222
244 244 244 243 245 247 249 251 253 254 257 261 264 266 266 271 273 274 278 281 281 279 278 276 274 274 264 257 252 246 238 235 230 226 231 232 232 231 231 228 227 226 226 227
244 244 244 242 241 243 245 248 251 254 257 259 262 265 264 266 270 271 272 274 275 275 273 273 271 269 259 254 249 243 238 237 234 230 230 233 235 233 232 232 228 226 228 231
242 243 244 244 241 242 244 246 248 251 254 258 261 263 261 264 268 269 269 269 269 268 267 268 268 264 258 252 248 246 239 239 235 232 231 232 231 229 232 234 228 229 232 234
242 243 244 245 243 242 243 245 247 250 254 257 258 260 259 262 265 267 268 268 265 263 263 262 262 261 256 250 248 243 240 239 239 238 235 234 230 228 232 231 227 228 229 231
241 243 245 245 244 243 244 244 246 248 251 255 257 258 258 259 260 263 264 265 263 259 259 258 260 261 254 248 244 241 243 239 239 238 234 230 230 228 229 231 232 230 231 233
242 244 246 247 246 244 243 244 246 248 249 252 255 257 257 257 258 260 260 260 260 256 256 256 259 258 254 249 244 242 242 240 237 235 232 230 230 228 230 233 232 231 231 233
242 243 246 248 246 246 245 244 246 248 249 252 254 253 254 255 255 256 257 257 256 254 254 255 254 253 249 246 247 247 242 240 236 234 233 233 232 232 234 234 232 234 234 236
243 243 246 248 248 247 245 245 246 246 247 249 251 252 252 251 251 252 254 253 252 251 248 249 252 254 250 245 246 247 243 241 239 236 236 237 236 235 236 237 237 238 238 240
241 242 245 247 248 248 246 246 246 247 245 246 248 250 250 248 248 248 249 249 249 249 246 246 250 253 250 246 246 248 245 243 241 241 240 239 238 238 238 239 240 240 241 242
241 242 245 247 249 248 245 245 245 246 246 245 246 248 250 249 246 245 245 244 245 246 246 247 248 250 250 247 246 249 249 244 242 241 240 239 240 238 238 241 243 242 243 246
244 243 245 247 248 247 245 244 245 247 247 245 245 247 247 246 243 243 244 243 243 244 246 248 248 246 246 246 245 248 248 247 245 242 243 244 243 241 242 244 245 246 246 248
244 246 247 247 247 246 246 246 246 247 245 245 245 245 244 243 243 243 243 243 243 244 245 246 248 245 244 244 243 244 246 247 247 246 247 246 245 245 245 246 246 248 249 250
243 245 246 247 245 245 246 245 246 247 247 245 243 242 241 241 241 241 241 241 241 243 244 245 247 246 244 243 242 243 244 245 247 251 253 250 247 247 246 248 248 249 251 252
244 244 245 245 244 245 244 243 244 246 246 243 241 240 239 239 239 239 239 240 241 241 243 244 245 244 243 243 242 242 245 247 248 251 254 255 251 249 248 250 251 252 252 253
243 245 246 246 243 242 242 243 245 246 245 243 239 238 238 238 239 240 239 239 240 240 241 242 242 242 242 242 241 242 246 249 250 251 253 255 254 250 249 250 250 251 252 252